FW3182 Weather Reports


Display with metric or nautical units.
time (UTC)temp
F
wind
direction
speed
MPH
gust
MPH
rain 1hr
in
rain 24hr
in
rain mn
in
humidity
%
barometer
mb
20260503040203 46 243 0.0 0.0 0.00 0.00 0.00 74 1019.5
20260503035204 46 243 0.0 0.0 0.00 0.00 0.00 74 1019.6
20260503034703 46 243 0.0 0.0 0.00 0.00 0.00 74 1019.6
20260503034204 47 243 0.0 0.0 0.00 0.00 0.00 73 1019.6
20260503033704 47 243 0.0 0.0 0.00 0.00 0.00 73 1019.6
20260503033204 47 243 0.0 0.0 0.00 0.00 0.00 72 1019.6
20260503032703 48 243 0.0 0.0 0.00 0.00 0.00 72 1019.6
20260503032203 48 243 0.0 0.0 0.00 0.00 0.00 69 1019.5
20260503031203 49 243 0.0 0.0 0.00 0.00 0.00 68 1019.4
20260503030704 49 243 0.0 0.0 0.00 0.00 0.00 68 1019.4
20260503030203 49 243 0.0 0.0 0.00 0.00 0.00 70 1019.5
20260503025204 50 243 0.0 0.0 0.00 0.00 0.00 69 1019.3
20260503024703 50 243 0.0 0.0 0.00 0.00 0.00 66 1019.3
20260503024204 50 243 0.0 0.0 0.00 0.00 0.00 65 1019.2
20260503023203 51 243 0.0 0.0 0.00 0.00 0.00 64 1019.2
20260503022704 51 243 0.0 0.0 0.00 0.00 0.00 64 1019.0
20260503022203 51 243 0.0 0.0 0.00 0.00 0.00 64 1019.1
20260503021203 51 243 0.0 0.0 0.00 0.00 0.00 63 1019.0
20260503020204 52 243 0.0 0.0 0.00 0.00 0.00 63 1018.9
20260503015703 52 243 0.0 0.0 0.00 0.00 0.00 62 1018.9
20260503015204 52 243 0.0 0.0 0.00 0.00 0.00 63 1018.9
20260503014204 53 243 0.0 0.0 0.00 0.00 0.00 63 1018.8
20260503013704 54 243 0.0 0.0 0.00 0.00 0.00 61 1018.8
20260503013204 54 243 0.0 0.0 0.00 0.00 0.00 59 1018.7
20260503012704 55 243 0.0 0.0 0.00 0.00 0.00 58 1018.7
20260503011703 56 243 0.0 0.0 0.00 0.00 0.00 57 1018.5
20260503010703 59 243 0.0 0.0 0.00 0.00 0.00 54 1018.5
20260503005703 61 243 0.0 0.0 0.00 0.00 0.00 49 1018.4
20260503005204 62 243 0.0 0.0 0.00 0.00 0.00 49 1018.3
20260503004704 63 243 0.0 0.0 0.00 0.00 0.00 49 1018.3
20260503004203 63 243 0.0 0.0 0.00 0.00 0.00 47 1018.3
20260503003704 63 243 0.0 1.0 0.00 0.00 0.00 46 1018.2
20260503003203 63 242 0.0 2.0 0.00 0.00 0.00 45 1018.2
20260503002203 65 285 0.0 3.0 0.00 0.00 0.00 45 1018.2
20260503001204 65 249 0.0 1.0 0.00 0.00 0.00 43 1018.1
20260503000204 64 251 0.0 1.0 0.00 0.00 0.00 44 1018.2
20260502235704 64 255 0.0 3.0 0.00 0.00 0.00 44 1018.3
20260502235203 64 256 1.0 3.0 0.00 0.00 0.00 44 1018.3
20260502234703 64 342 1.0 6.0 0.00 0.00 0.00 44 1018.2
20260502234204 64 265 2.0 3.0 0.00 0.00 0.00 44 1018.2
20260502233704 64 280 2.0 3.0 0.00 0.00 0.00 43 1018.2
20260502233203 64 295 3.0 6.0 0.00 0.00 0.00 42 1018.2
20260502232704 64 280 2.0 5.0 0.00 0.00 0.00 43 1018.2
20260502232204 64 251 3.0 7.0 0.00 0.00 0.00 43 1018.3
20260502231703 64 248 1.0 3.0 0.00 0.00 0.00 44 1018.3
20260502231203 64 323 1.0 5.0 0.00 0.00 0.00 43 1018.3
20260502230703 64 239 3.0 6.0 0.00 0.00 0.00 41 1018.3
20260502230204 64 284 3.0 7.0 0.00 0.00 0.00 42 1018.4
20260502225704 65 266 3.0 5.0 0.00 0.00 0.00 42 1018.4
20260502225203 65 3 2.0 3.0 0.00 0.00 0.00 41 1018.3
20260502224704 65 289 2.0 6.0 0.00 0.00 0.00 42 1018.3
20260502224204 65 309 2.0 7.0 0.00 0.00 0.00 41 1018.3
20260502223704 65 249 2.0 7.0 0.00 0.00 0.00 40 1018.2
20260502223203 65 308 1.0 6.0 0.00 0.00 0.00 42 1018.3
20260502222703 64 276 2.0 6.0 0.00 0.00 0.00 42 1018.3
20260502222204 65 255 3.0 7.0 0.00 0.00 0.00 39 1018.3
20260502221704 65 291 2.0 5.0 0.00 0.00 0.00 42 1018.2
20260502221203 65 303 1.0 6.0 0.00 0.00 0.00 42 1018.3
20260502220703 65 352 1.0 7.0 0.00 0.00 0.00 42 1018.2
20260502220203 66 296 2.0 5.0 0.00 0.00 0.00 39 1018.3
20260502215704 66 308 1.0 2.0 0.00 0.00 0.00 41 1018.2
20260502215204 65 257 2.0 8.0 0.00 0.00 0.00 41 1018.3
20260502214703 64 269 1.0 12.0 0.00 0.00 0.00 42 1018.3
20260502214204 65 279 4.0 8.0 0.00 0.00 0.00 39 1018.4
20260502213203 65 224 1.0 3.0 0.00 0.00 0.00 43 1018.3
20260502212704 64 277 5.0 9.0 0.00 0.00 0.00 40 1018.3
20260502212204 65 258 3.0 7.0 0.00 0.00 0.00 41 1018.3
20260502211703 65 253 2.0 5.0 0.00 0.00 0.00 41 1018.4
20260502211203 65 276 2.0 8.0 0.00 0.00 0.00 44 1018.4
20260502210703 64 315 4.0 8.0 0.00 0.00 0.00 42 1018.5
20260502210204 65 250 3.0 7.0 0.00 0.00 0.00 42 1018.6
20260502204703 65 260 5.0 9.0 0.00 0.00 0.00 39 1018.6
20260502204204 65 348 1.0 6.0 0.00 0.00 0.00 42 1018.6
20260502203704 65 274 3.0 12.0 0.00 0.00 0.00 42 1018.8
20260502203203 65 273 3.0 6.0 0.00 0.00 0.00 42 1018.9
20260502202703 65 263 3.0 7.0 0.00 0.00 0.00 44 1018.8
20260502202204 64 285 2.0 7.0 0.00 0.00 0.00 41 1018.9
20260502201704 64 330 2.0 5.0 0.00 0.00 0.00 42 1018.8
20260502201204 64 275 1.0 6.0 0.00 0.00 0.00 41 1018.9
20260502200704 64 347 3.0 10.0 0.00 0.00 0.00 41 1019.0
20260502200204 64 318 2.0 7.0 0.00 0.00 0.00 41 1018.9
20260502195203 64 256 1.0 5.0 0.00 0.00 0.00 43 1018.9
20260502194704 63 346 2.0 12.0 0.00 0.00 0.00 43 1018.9
20260502194204 63 261 5.0 9.0 0.00 0.00 0.00 43 1018.9
20260502193703 63 231 3.0 12.0 0.00 0.00 0.00 44 1019.1
20260502192704 63 264 5.0 15.0 0.00 0.00 0.00 40 1018.9
20260502192204 64 321 3.0 8.0 0.00 0.00 0.00 41 1019.0
20260502191704 63 256 5.0 9.0 0.00 0.00 0.00 40 1019.0
20260502191204 64 284 5.0 14.0 0.00 0.00 0.00 41 1019.0
20260502190703 64 309 5.0 9.0 0.00 0.00 0.00 44 1019.1
20260502185704 63 331 3.0 12.0 0.00 0.00 0.00 46 1019.1
20260502185204 63 278 5.0 13.0 0.00 0.00 0.00 44 1019.1
20260502184704 63 249 5.0 12.0 0.00 0.00 0.00 43 1019.1
20260502184204 64 292 4.0 9.0 0.00 0.00 0.00 45 1019.2
20260502183704 63 250 4.0 12.0 0.00 0.00 0.00 44 1019.2
20260502183204 63 286 3.0 7.0 0.00 0.00 0.00 47 1019.3
20260502182704 63 319 4.0 13.0 0.00 0.00 0.00 46 1019.2
20260502182204 63 243 3.0 7.0 0.00 0.00 0.00 45 1019.3
20260502181703 62 277 6.0 14.0 0.00 0.00 0.00 46 1019.3
20260502181204 62 276 7.0 15.0 0.00 0.00 0.00 45 1019.4
20260502180703 62 246 3.0 18.0 0.00 0.00 0.00 43 1019.4
20260502180203 62 273 5.0 10.0 0.00 0.00 0.00 46 1019.5
20260502170204 62 268 3.0 7.0 0.00 0.00 0.00 48 1020.0
20260502164203 62 295 3.0 9.0 0.00 0.00 0.00 46 1019.9
20260502163704 62 254 2.0 5.0 0.00 0.00 0.00 48 1019.9
20260502163204 62 292 2.0 5.0 0.00 0.00 0.00 48 1019.9
20260502162204 61 247 5.0 8.0 0.00 0.00 0.00 47 1019.8
20260502161703 60 256 1.0 13.0 0.00 0.00 0.00 48 1019.9
20260502160203 60 263 2.0 8.0 0.00 0.00 0.00 46 1019.9
20260502151704 58 274 3.0 6.0 0.00 0.00 0.00 53 1019.7
20260502151203 58 306 1.0 5.0 0.00 0.00 0.00 55 1019.7
20260502150204 57 287 4.0 13.0 0.00 0.00 0.00 55 1019.8
20260502130703 49 271 0.0 3.0 0.00 0.00 0.00 75 1019.1
20260502130204 49 252 1.0 3.0 0.00 0.00 0.00 75 1019.0
20260502123204 46 310 0.0 2.0 0.00 0.00 0.00 80 1018.9
20260502122703 45 301 0.0 1.0 0.00 0.00 0.00 81 1018.8
20260502122204 45 279 0.0 1.0 0.00 0.00 0.00 82 1018.7
20260502121704 44 279 0.0 1.0 0.00 0.00 0.00 82 1018.7
20260502121203 44 281 0.0 1.0 0.00 0.00 0.00 83 1018.6
20260502120704 43 280 0.0 1.0 0.00 0.00 0.00 83 1018.6
20260502120203 43 278 0.0 0.0 0.00 0.00 0.00 84 1018.4
20260502115704 42 278 0.0 1.0 0.00 0.00 0.00 85 1018.4
20260502115204 42 285 0.0 0.0 0.00 0.00 0.00 87 1018.4
20260502114204 42 266 0.0 1.0 0.00 0.00 0.00 85 1018.3
20260502113704 42 266 0.0 1.0 0.00 0.00 0.00 85 1018.3
20260502113203 42 250 0.0 1.0 0.00 0.00 0.00 85 1018.2
20260502112704 42 243 1.0 1.0 0.00 0.00 0.00 84 1018.2
20260502112204 42 260 0.0 1.0 0.00 0.00 0.00 84 1018.2
20260502111703 43 260 0.0 1.0 0.00 0.00 0.00 83 1018.1
20260502111204 43 237 0.0 0.0 0.00 0.00 0.00 83 1018.0
20260502110703 43 274 0.0 0.0 0.00 0.00 0.00 83 1018.0
20260502110204 43 274 0.0 2.0 0.00 0.00 0.00 84 1017.9
20260502105704 43 274 0.0 1.0 0.00 0.00 0.00 83 1017.8
20260502105203 43 274 0.0 0.0 0.00 0.00 0.00 84 1017.7
20260502104704 43 274 0.0 0.0 0.00 0.00 0.00 83 1017.7
20260502104203 44 274 0.0 0.0 0.00 0.00 0.00 81 1017.6
20260502103704 44 274 0.0 0.0 0.00 0.00 0.00 81 1017.6
20260502103204 44 274 0.0 2.0 0.00 0.00 0.00 79 1017.5
20260502102704 45 274 0.0 1.0 0.00 0.00 0.00 78 1017.6
20260502102204 45 275 1.0 1.0 0.00 0.00 0.00 77 1017.5
20260502101703 45 264 1.0 1.0 0.00 0.00 0.00 76 1017.4
20260502100704 45 278 1.0 3.0 0.00 0.00 0.00 75 1017.4
20260502100203 45 266 2.0 3.0 0.00 0.00 0.00 75 1017.4
20260502091204 48 267 2.0 3.0 0.00 0.00 0.00 69 1017.2
20260502090204 48 278 1.0 3.0 0.00 0.00 0.00 69 1017.1
20260502071203 45 219 0.0 0.0 0.00 0.00 0.00 74 1017.2
20260502070704 45 219 0.0 0.0 0.00 0.00 0.00 74 1017.2
20260502065704 45 219 0.0 0.0 0.00 0.00 0.00 75 1017.3
20260502064704 45 219 0.0 0.0 0.00 0.00 0.00 76 1017.3
20260502064204 45 219 0.0 0.0 0.00 0.00 0.00 76 1017.3
20260502063704 46 219 0.0 0.0 0.00 0.00 0.00 79 1017.3
20260502063204 46 219 0.0 0.0 0.00 0.00 0.00 79 1017.4
20260502062704 46 219 0.0 0.0 0.00 0.00 0.00 82 1017.4
20260502062204 46 219 0.0 0.0 0.00 0.00 0.00 81 1017.4
20260502061703 46 219 0.0 0.0 0.00 0.00 0.00 79 1017.5
20260502061204 45 219 0.0 0.0 0.00 0.00 0.00 76 1017.4
20260502060703 45 219 0.0 0.0 0.00 0.00 0.00 75 1017.5
20260502060204 45 219 0.0 0.0 0.00 0.00 0.00 76 1017.6
20260502055704 44 219 0.0 0.0 0.00 0.00 0.00 72 1017.5
20260502054703 44 219 0.0 0.0 0.00 0.00 0.00 70 1017.5
20260502054204 44 219 0.0 0.0 0.00 0.00 0.00 70 1017.5
20260502053204 44 219 0.0 0.0 0.00 0.00 0.00 71 1017.4
20260502052704 44 219 0.0 0.0 0.00 0.00 0.00 72 1017.4
20260502052203 45 219 0.0 0.0 0.00 0.00 0.00 73 1017.4
20260502051704 45 219 0.0 0.0 0.00 0.00 0.00 73 1017.5
20260502051203 46 219 0.0 0.0 0.00 0.00 0.00 74 1017.4
20260502050703 46 219 0.0 0.0 0.00 0.00 0.00 74 1017.5
20260502050204 46 219 0.0 0.0 0.00 0.00 0.00 74 1017.5
20260502045704 46 219 0.0 0.0 0.00 0.00 0.00 74 1017.5
20260502044704 46 219 0.0 0.0 0.00 0.00 0.00 74 1017.4
20260502044203 46 219 0.0 0.0 0.00 0.00 0.00 70 1017.4
20260502043704 46 219 0.0 0.0 0.00 0.00 0.00 71 1017.4
20260502043203 46 219 0.0 0.0 0.00 0.00 0.00 71 1017.4
20260502042704 46 219 0.0 0.0 0.00 0.00 0.00 71 1017.5
20260502042203 47 219 0.0 0.0 0.00 0.00 0.00 71 1017.5
20260502041703 47 219 0.0 0.0 0.00 0.00 0.00 71 1017.5
20260502041204 47 219 0.0 0.0 0.00 0.00 0.00 70 1017.5